Regional Weather Roundup
Issued by NWS

Home | Current Version | Previous Version | Graphics & Text | Print | Product List | Glossary On
Versions: 1 2 3 4 5 6 7 8 9 10 11 12 13 14 15 16 17 18 19 20 21 22 23 24 25 26 27 28 29 30 31 32 33 34 35 36 37 38 39 40 41 42 43 44 45 46 47 48
000
ASUS45 KBOU 020107
RWRCO

WEATHER ROUNDUP FOR COLORADO
NATIONAL WEATHER SERVICE DENVER/BOULDER CO
600 PM MST SUN FEB 01 2015

NOTE: "FAIR" INDICATES FEW OR NO CLOUDS BELOW 12000 FEET WITH NO
SIGNIFICANT WEATHER AND/OR OBSTRUCTIONS TO VISIBILITY.

COZ001>005-013-030-031-020200-
...NORTHWEST COLORADO...

CITY           SKY/WX    TMP DP  RH WIND       PRES   REMARKS
CRAIG          CLOUDY    30  20  66 SE3       30.14R
HAYDEN         MOCLDY    28  16  59 E5        30.13S WCI  23
MEEKER         PTCLDY    29  17  61 CALM      30.14R
MOUNT WERNER   NOT AVBL
STEAMBOAT SPGS MOCLDY    26  13  58 E3        30.13S
WALDEN         CLEAR     21  10  63 S10       30.08S WCI  10
$$

COZ006>008-011-020200-
...WEST CENTRAL VALLEYS...

CITY           SKY/WX    TMP DP  RH WIND       PRES   REMARKS
GRAND JUNCTION PTCLDY    40  31  70 CALM      30.15R
MONTROSE       MOCLDY    41  16  36 NE3       30.17R
EAGLE          MOCLDY    36  12  38 SW7       30.16R
RIFLE          CLOUDY    40  20  44 SW6       30.14R
DELTA          CLOUDY    46  24  43 SW7       30.16R
NUCLA          CLEAR     41  23  48 NW5       30.20R
$$

COZ017>023-064>068-020200-
...SOUTHWEST COLORADO...

CITY           SKY/WX    TMP DP  RH WIND       PRES   REMARKS
DURANGO        CLEAR     34  28  79 E5        30.13R WCI  30
CORTEZ         CLEAR     41  15  35 NW7       30.14R
PAGOSA SPRINGS CLEAR     28  25  90 CALM      30.15R
TELLURIDE      PTCLDY    30   2  30 CALM      30.18R
WOLF CREEK PAS PTCLDY    18   9  68 S7        30.17R WCI   8
$$

COZ009-010-012-014-032>034-037-058>063-020200-
...CENTRAL COLORADO...

CITY           SKY/WX    TMP DP  RH WIND       PRES   REMARKS
ASPEN          PTCLDY    27  10  49 S3        30.14R
BUENA VISTA    CLEAR     28   2  33 NW7       30.08R WCI  21
COPPER MTN     PTCLDY    14   0  52 W21G26    30.07R WCI  -4
BERTHOUD PASS  NOT AVBL
COTTONWOOD PAS CLEAR     28 -17  13 W23G36    30.06S WCI  14
GUNNISON       CLEAR     28  10  47 N5        30.17R WCI  23
KREMMLING      CLOUDY    30   7  37 CALM      30.13R
LEADVILLE      CLOUDY    18   0  45 NW16G31   30.09R WCI   3
SALIDA         CLEAR     34   6  30 W23       30.15R WCI  22
SUNLIGHT       CLOUDY    19  10  68 CALM        N/A
WILKERSON PASS PTCLDY    18  -8  32 NW16G29   30.05S WCI   3
$$

COZ069>075-020200-
...SAN LUIS VALLEY/SANGRE DE CRISTO MOUNTAINS...

CITY           SKY/WX    TMP DP  RH WIND       PRES   REMARKS
ALAMOSA        CLEAR     29  12  49 CALM      30.10R
LA VETA PASS   CLEAR     19  10  68 MISG      30.06S
SAGUACHE       CLEAR     30  10  43 NW15      30.11R WCI  19
$$

COZ035-036-038>040-020200-
...NORTHERN COLORADO FRONT RANGE...

CITY           SKY/WX    TMP DP  RH WIND       PRES   REMARKS
DENVER INTL AP PTCLDY    17  11  77 S7        30.14S WCI   8
DMNS CITY PARK   N/A     22  18  87 SE2       30.14S
AURORA         PTCLDY    20  15  78 S3        30.14S
FRONT RANGE AP NOT AVBL
ERIE MUNI ARPT CLEAR     20  17  88 CALM      30.14S
BOULDER MUN AP CLEAR     23  19  86 SE5       30.13S WCI  17
CENTENNIAL     PTCLDY    19  13  77 SE3       30.12F
BROOMFIELD     PTCLDY    21  18  86 S5        30.13F WCI  15
FORT COLLINS   CLEAR     25  18  74 S8        30.15S WCI  16
LONGMONT       CLEAR     24  19  80 CALM      30.17S
$$

COZ041-046-047-076>085-087-088-020200-
...PIKES PEAK/PALMER DIVIDE AND SOUTHERN FOOTHILLS...

CITY           SKY/WX    TMP DP  RH WIND       PRES   REMARKS
COLO. SPRINGS  MOCLDY    27  18  69 SE6       30.13R WCI  20
A. F. ACADEMY  CLOUDY    23  15  70 NE6       30.11R WCI  16
ELLICOTT       MOCLDY   N/A N/A N/A N6        30.12S
FALCON         CLOUDY    22  15  75 NW3       30.12R
FORT CARSON    CLOUDY    27  19  69 SE6       30.13R WCI  21
LIMON          CLEAR     11   8  88 CALM      30.17R
MONUMENT HILL  CLEAR     14  12  92 SW7       30.09S WCI   4
TRINIDAD       CLOUDY    28  21  75 E7        30.16R WCI  21
$$

COZ042>045-048>051-090-091-020200-
...NORTHEAST COLORADO...

CITY           SKY/WX    TMP DP  RH WIND       PRES   REMARKS
GREELEY ARPT   CLEAR     25   9  50 E8        30.15R WCI  16
AKRON          CLEAR     13  10  88 SE3       30.18R
BURLINGTON     CLEAR     14   8  77 N7        30.23R WCI   4
WRAY           CLEAR     10   6  83 N5        30.26S WCI   2
STERLING       CLEAR     18  10  73 E7        30.21R WCI   8
HOLYOKE        NOT AVBL
FORT MORGAN    CLEAR     20  10  65 E8        30.18F WCI  11
$$

COZ086-089-092>099-020200-
...SOUTHEAST COLORADO...

CITY           SKY/WX    TMP DP  RH WIND       PRES   REMARKS
PUEBLO         CLOUDY    31  19  61 E12       30.18R WCI  22
LA JUNTA       CLOUDY    31  17  56 NE8       30.21R WCI  23
LAMAR          CLEAR     26  17  68 NE9       30.23R WCI  17
SPRINGFIELD      N/A     24  19  81 N9        30.21R WCI  14
$$



USA.gov is the U.S. government's official web portal to all federal, state and local government web resources and services.